User: anonymous   Login
Location: ???????
(55.4362°N, 38.1183°E)
Time: 22:05:16
(UTC+00:00)
Language:

FENGYUN 1C DEB - Orbit

View from above orbital plane
View from above orbital plane
View from above satellite
View from above satellite

Ground track
Ground track

The orbit data is extracted from the following two-line orbital elements,

1 30899U 99025AYM 22021.73240942  .00001606  00000-0  83668-3 0  9999
2 30899  99.2349 197.0173 0039064  14.8875  50.9106 14.15701060764463
Epoch (UTC): 21 January 2022 17:34:40
Eccentricity: 0.0039064
inclination: 99.2349°
perigee height: 812 km
apogee height: 868 km
right ascension of ascending node: 197.0173°
argument of perigee: 14.8875°
revolutions per day: 14.15701060
mean anomaly at epoch: 50.9106°
orbit number at epoch: 76446

The dashed part of the orbit path shows where the satellite is in the earth's shadow,  

DLR